• In Hungary
  • List of Countries
  • For 7 days
  • Water Temperature
  • Satellite Maps
  • Weather Map
  • News
  • Weather Widgets
  • user-avatar
    Login

    Hourly Weather Perenka

    Today, 14 November, Wednesday

    Time Temperature Precipitation Wind Pressure Humidity
    00:00 -6°C° 0 mm 6 mps 754 mmHg 43%
    01:00 -6°C° 0 mm 6 mps 754 mmHg 45%
    02:00 -6°C° 0 mm 6 mps 753 mmHg 46%
    03:00 -6°C° 0 mm 6 mps 753 mmHg 47%
    04:00 -6°C° 0 mm 6 mps 752 mmHg 49%
    05:00 -6°C° 0 mm 6 mps 751 mmHg 50%
    06:00 -5°C° 0 mm 6 mps 751 mmHg 52%
    07:00 -5°C° 0 mm 6 mps 751 mmHg 53%
    08:00 -5°C° 0 mm 6 mps 751 mmHg 55%
    09:00 -5°C° 0 mm 6 mps 750 mmHg 55%
    10:00 -4°C° 0 mm 6 mps 750 mmHg 56%
    11:00 -4°C° 0 mm 6 mps 750 mmHg 56%
    12:00 -4°C° 0 mm 6 mps 749 mmHg 57%
    13:00 -4°C° 0 mm 6 mps 749 mmHg 58%
    14:00 -2°C° 0 mm 5 mps 749 mmHg 59%
    15:00 -4°C° 0 mm 5 mps 749 mmHg 63%
    16:00 -4°C° 0 mm 5 mps 749 mmHg 66%
    17:00 -3°C° 0 mm 4 mps 749 mmHg 69%
    18:00 -3°C° 0.1 mm 4 mps 749 mmHg 73%
    19:00 -3°C° 0.1 mm 4 mps 749 mmHg 76%
    20:00 -3°C° 0.1 mm 4 mps 749 mmHg 80%
    21:00 -3°C° 0.1 mm 4 mps 750 mmHg 81%
    22:00 -3°C° 0.1 mm 4 mps 750 mmHg 83%
    23:00 -2°C° 0.1 mm 3 mps 750 mmHg 85%

    Tomorrow, 15 November, Thursday

    Time Temperature Precipitation Wind Pressure Humidity
    00:00 -2°C° 0 mm 3 mps 751 mmHg 86%
    01:00 -2°C° 0 mm 3 mps 751 mmHg 87%
    02:00 -2°C° 0 mm 3 mps 751 mmHg 87%
    03:00 -1°C° 0.1 mm 3 mps 752 mmHg 88%
    04:00 -1°C° 0.1 mm 3 mps 752 mmHg 89%
    05:00 -1°C° 0.1 mm 2 mps 752 mmHg 90%
    06:00 -1°C° 0.1 mm 3 mps 753 mmHg 90%
    07:00 -1°C° 0.1 mm 3 mps 753 mmHg 90%
    08:00 -1°C° 0.1 mm 3 mps 754 mmHg 90%
    09:00 -1°C° 0 mm 3 mps 754 mmHg 89%
    10:00 -1°C° 0 mm 3 mps 755 mmHg 88%
    11:00 0°C° 0 mm 3 mps 755 mmHg 88%
    12:00 0°C° 0 mm 3 mps 755 mmHg 88%
    13:00 0°C° 0 mm 3 mps 756 mmHg 88%
    14:00 +1°C° 0 mm 2 mps 756 mmHg 88%
    15:00 +1°C° 0.1 mm 2 mps 756 mmHg 90%
    16:00 +1°C° 0.1 mm 2 mps 757 mmHg 92%
    17:00 -1°C° 0.1 mm 2 mps 757 mmHg 93%
    18:00 -1°C° 0 mm 2 mps 757 mmHg 93%
    19:00 -1°C° 0 mm 2 mps 758 mmHg 93%
    20:00 -1°C° 0 mm 2 mps 758 mmHg 93%
    21:00 -1°C° 0 mm 2 mps 758 mmHg 93%
    22:00 -1°C° 0 mm 2 mps 759 mmHg 93%
    23:00 -1°C° 0 mm 2 mps 759 mmHg 92%

    Day after tomorrow, 16 November, Friday

    Time Temperature Precipitation Wind Pressure Humidity
    00:00 -1°C° 0 mm 2 mps 759 mmHg 92%
    01:00 -1°C° 0 mm 2 mps 760 mmHg 91%
    02:00 0°C° 0 mm 1 mps 760 mmHg 91%
    03:00 -2°C° 0 mm 2 mps 760 mmHg 90%
    04:00 -2°C° 0 mm 2 mps 761 mmHg 89%
    05:00 -3°C° 0 mm 2 mps 761 mmHg 87%
    06:00 -3°C° 0 mm 2 mps 761 mmHg 86%
    07:00 -3°C° 0 mm 2 mps 762 mmHg 84%
    08:00 -3°C° 0 mm 2 mps 762 mmHg 82%
    09:00 -2°C° 0 mm 2 mps 762 mmHg 77%
    10:00 -1°C° 0 mm 2 mps 762 mmHg 71%
    11:00 +1°C° 0 mm 2 mps 763 mmHg 66%
    12:00 +1°C° 0 mm 2 mps 763 mmHg 66%
    13:00 +2°C° 0 mm 1 mps 763 mmHg 66%
    14:00 +2°C° 0 mm 1 mps 762 mmHg 66%
    15:00 +1°C° 0 mm 1 mps 763 mmHg 69%
    16:00 0°C° 0 mm 1 mps 763 mmHg 72%
    17:00 -3°C° 0 mm 2 mps 763 mmHg 74%
    18:00 -3°C° 0 mm 2 mps 763 mmHg 73%
    19:00 -3°C° 0 mm 2 mps 763 mmHg 72%
    20:00 -1°C° 0 mm 1 mps 763 mmHg 71%
    21:00 -1°C° 0 mm 1 mps 763 mmHg 68%
    22:00 -1°C° 0 mm 1 mps 763 mmHg 66%
    23:00 -1°C° 0 mm 1 mps 763 mmHg 63%

    17 November, Saturday

    Time Temperature Precipitation Wind Pressure Humidity
    00:00 -2°C° 0 mm 1 mps 763 mmHg 61%
    01:00 -2°C° 0 mm 1 mps 763 mmHg 59%
    02:00 -3°C° 0 mm 0 mps 763 mmHg 57%
    03:00 -3°C° 0 mm 0 mps 763 mmHg 57%
    04:00 -3°C° 0 mm 0 mps 762 mmHg 56%
    05:00 -3°C° 0 mm 0 mps 762 mmHg 56%
    06:00 -3°C° 0 mm 0 mps 762 mmHg 56%
    07:00 -3°C° 0 mm 0 mps 762 mmHg 56%
    08:00 -3°C° 0 mm 0 mps 762 mmHg 56%
    09:00 0°C° 0 mm 1 mps 761 mmHg 55%
    10:00 +1°C° 0 mm 1 mps 761 mmHg 53%
    11:00 +2°C° 0 mm 1 mps 761 mmHg 52%
    12:00 +2°C° 0 mm 1 mps 760 mmHg 55%
    13:00 +1°C° 0 mm 2 mps 760 mmHg 59%
    14:00 +1°C° 0 mm 2 mps 759 mmHg 62%
    15:00 -1°C° 0 mm 2 mps 758 mmHg 67%
    16:00 -1°C° 0 mm 2 mps 758 mmHg 72%
    17:00 -2°C° 0 mm 3 mps 757 mmHg 77%
    18:00 -2°C° 0 mm 3 mps 757 mmHg 81%
    19:00 -2°C° 0 mm 3 mps 756 mmHg 86%
    20:00 -2°C° 0 mm 3 mps 756 mmHg 90%
    21:00 -2°C° 0 mm 3 mps 755 mmHg 91%
    22:00 -1°C° 0 mm 3 mps 754 mmHg 91%
    23:00 -1°C° 0 mm 3 mps 754 mmHg 92%

    18 November, Sunday

    Time Temperature Precipitation Wind Pressure Humidity
    00:00 -2°C° 0 mm 4 mps 753 mmHg 93%
    01:00 -2°C° 0 mm 4 mps 752 mmHg 94%
    02:00 -1°C° 0 mm 4 mps 751 mmHg 95%
    03:00 -1°C° 0 mm 4 mps 750 mmHg 95%
    04:00 0°C° 0 mm 3 mps 750 mmHg 96%
    05:00 0°C° 0 mm 3 mps 749 mmHg 96%
    06:00 0°C° 0.1 mm 3 mps 748 mmHg 96%
    07:00 0°C° 0.1 mm 3 mps 748 mmHg 96%
    08:00 0°C° 0.1 mm 3 mps 747 mmHg 96%
    09:00 0°C° 0.1 mm 3 mps 747 mmHg 94%
    10:00 +1°C° 0.1 mm 3 mps 747 mmHg 93%
    11:00 +1°C° 0.1 mm 3 mps 746 mmHg 91%
    12:00 +1°C° 0.1 mm 3 mps 746 mmHg 91%
    13:00 +1°C° 0.1 mm 3 mps 746 mmHg 91%
    14:00 +1°C° 0.1 mm 3 mps 745 mmHg 91%
    15:00 +1°C° 0.1 mm 3 mps 745 mmHg 92%
    16:00 +1°C° 0.1 mm 3 mps 745 mmHg 92%
    17:00 0°C° 0.1 mm 3 mps 745 mmHg 93%
    18:00 0°C° 0.1 mm 3 mps 745 mmHg 92%
    19:00 -1°C° 0.1 mm 4 mps 745 mmHg 92%
    20:00 -1°C° 0.1 mm 4 mps 745 mmHg 92%
    21:00 0°C° 0.1 mm 3 mps 745 mmHg 92%
    22:00 0°C° 0.1 mm 3 mps 745 mmHg 93%
    23:00 -1°C° 0.1 mm 3 mps 745 mmHg 93%

    19 November, Monday

    Time Temperature Precipitation Wind Pressure Humidity
    00:00 0°C° 0.3 mm 3 mps 745 mmHg 93%
    01:00 0°C° 0.3 mm 3 mps 745 mmHg 93%
    02:00 -1°C° 0.3 mm 4 mps 745 mmHg 92%
    03:00 -1°C° 0.1 mm 4 mps 746 mmHg 92%
    04:00 -1°C° 0.1 mm 4 mps 746 mmHg 92%
    05:00 -1°C° 0.1 mm 5 mps 746 mmHg 91%
    06:00 -1°C° 0.1 mm 5 mps 746 mmHg 90%
    07:00 -1°C° 0.1 mm 5 mps 747 mmHg 89%
    08:00 -1°C° 0.1 mm 5 mps 747 mmHg 89%
    09:00 -1°C° 0.1 mm 5 mps 748 mmHg 87%
    10:00 -1°C° 0.1 mm 5 mps 748 mmHg 86%
    11:00 -1°C° 0.1 mm 5 mps 749 mmHg 85%
    12:00 -1°C° 0.1 mm 5 mps 749 mmHg 84%
    13:00 -1°C° 0.1 mm 5 mps 749 mmHg 83%
    14:00 -1°C° 0.1 mm 5 mps 749 mmHg 82%
    15:00 -2°C° 0.1 mm 5 mps 750 mmHg 83%
    16:00 -2°C° 0.1 mm 5 mps 750 mmHg 83%
    17:00 -2°C° 0.1 mm 5 mps 750 mmHg 84%
    18:00 -4°C° 0 mm 5 mps 751 mmHg 82%
    19:00 -5°C° 0 mm 5 mps 751 mmHg 80%
    20:00 -5°C° 0 mm 5 mps 752 mmHg 78%
    21:00 -5°C° 0 mm 5 mps 752 mmHg 79%
    22:00 -5°C° 0 mm 4 mps 752 mmHg 79%
    23:00 -5°C° 0 mm 4 mps 753 mmHg 80%
    Show more